Weather History for KPTK - September, 2011

Change the Weather History Date:

Wednesday, September 21, 2011

  Actual Average Record
Temperature  
Mean Temperature 67 °F -  
Max Temperature 75 °F 68 °F 86 °F (2010)
Min Temperature 59 °F 48 °F 39 °F (1997)
Cooling Degree Days 2    
Growing Degree Days 17 (Base 50)    
Moisture  
Dew Point 59 °F    
Average Humidity 81    
Maximum Humidity 94    
Minimum Humidity 50    
Precipitation  
Precipitation 0.01 in - - ()
Sea Level Pressure  
Sea Level Pressure 29.97 in    
Wind  
Wind Speed 5 mph (South)    
Max Wind Speed 13 mph    
Max Gust Speed 24 mph    
Visibility 5 miles    
Events      
Averages and records for this station are not official NWS values.
T = Trace of Precipitation, MM = Missing Value Source: NWS Daily Summary

Daily Weather History Graph

Daily Weather History Graph

Search for Another Location

Airport or City:

Trip Planner

Search our weather history database for the weather conditions in past years. The results will help you decide how hot, cold, wet, or windy it might be!

Date:

Astronomy

Sep. 21, 2011 Rise Set
Actual Time 7:19 AM EDT 7:33 PM EDT
Civil Twilight 6:51 AM EDT 8:01 PM EDT
Nautical Twilight 6:18 AM EDT 8:34 PM EDT
Astronomical Twilight 5:44 AM EDT 9:08 PM EDT
Moon 12:30 AM EDT (9/21) 3:49 PM EDT (9/21)
Length of Visible Light 13h 09m
Length of Day
12h 13m
Last Quarter, 39% of the Moon is Illuminated
Sep 21
Last Quarter
Sep 27
New
Oct 3
First Quarter
Oct 11
Full
Oct 19
Last Quarter

Hourly Weather History & Observations

Time (EDT) Temp. Dew Point Humidity Pressure Visibility Wind Dir Wind Speed Gust Speed Precip Events Conditions
12:53 AM 59.0 °F 57.0 °F 93% 30.05 in 4.0 mi Calm Calm - N/A   Partly Cloudy
1:14 AM 59.0 °F 57.2 °F 94% 30.05 in 3.0 mi Calm Calm - N/A   Partly Cloudy
1:53 AM 59.0 °F 57.0 °F 93% 30.03 in 3.0 mi Calm Calm - N/A   Mostly Cloudy
2:07 AM 59.0 °F 57.2 °F 94% 30.04 in 4.0 mi Calm Calm - N/A   Mostly Cloudy
2:53 AM 61.0 °F 59.0 °F 93% 30.02 in 4.0 mi SE 4.6 mph - 0.01 in   Mostly Cloudy
3:14 AM 60.8 °F 59.0 °F 94% 30.03 in 4.0 mi SSE 5.8 mph - N/A   Mostly Cloudy
3:53 AM 61.0 °F 59.0 °F 93% 30.00 in 4.0 mi SSE 6.9 mph - N/A   Mostly Cloudy
4:53 AM 61.0 °F 57.9 °F 90% 30.00 in 4.0 mi SSE 5.8 mph - N/A   Mostly Cloudy
5:14 AM 62.6 °F 60.8 °F 94% 30.01 in 4.0 mi South 5.8 mph - N/A   Mostly Cloudy
5:38 AM 62.6 °F 60.8 °F 94% 30.00 in 3.0 mi SSE 6.9 mph - N/A   Overcast
5:53 AM 62.6 °F 59.0 °F 88% 30.00 in 3.0 mi South 5.8 mph - N/A   Overcast
6:53 AM 62.1 °F 59.0 °F 90% 29.99 in 2.5 mi SE 4.6 mph - N/A   Overcast
7:50 AM 62.6 °F 60.8 °F 94% 29.99 in 1.2 mi SSE 6.9 mph - N/A   Overcast
7:53 AM 62.1 °F 60.1 °F 93% 29.99 in 1.2 mi SSE 8.1 mph - N/A   Overcast
8:53 AM 63.0 °F 61.0 °F 93% 29.98 in 1.8 mi SSE 9.2 mph - N/A   Overcast
9:02 AM 62.6 °F 60.8 °F 94% 29.97 in 2.0 mi SSE 8.1 mph - N/A   Overcast
9:47 AM 64.4 °F 62.6 °F 94% 29.97 in 2.5 mi South 5.8 mph - N/A   Overcast
9:53 AM 64.0 °F 62.1 °F 93% 29.96 in 2.5 mi South 6.9 mph - N/A   Overcast
10:38 AM 66.2 °F 62.6 °F 88% 29.97 in 3.0 mi SSE 5.8 mph - N/A   Overcast
10:53 AM 66.0 °F 62.1 °F 87% 29.96 in 3.0 mi South 9.2 mph - N/A   Overcast
11:24 AM 66.2 °F 62.6 °F 88% 29.97 in 4.0 mi South 9.2 mph - N/A   Overcast
11:53 AM 68.0 °F 63.0 °F 84% 29.96 in 4.0 mi South 5.8 mph - N/A   Haze
12:31 PM 69.8 °F 62.6 °F 78% 29.95 in 5.0 mi South 8.1 mph - N/A   Haze
12:53 PM 70.0 °F 64.0 °F 81% 29.94 in 6.0 mi SSW 6.9 mph - N/A   Haze
1:16 PM 71.6 °F 62.6 °F 73% 29.94 in 7.0 mi SSW 8.1 mph - N/A   Mostly Cloudy
1:53 PM 72.0 °F 62.1 °F 71% 29.91 in 10.0 mi SSW 10.4 mph - N/A   Mostly Cloudy
2:53 PM 75.2 °F 60.8 °F 61% 29.91 in 10.0 mi SSW 11.5 mph 23.0 mph N/A   Mostly Cloudy
3:53 PM 75.0 °F 60.1 °F 60% 29.89 in 10.0 mi SSW 9.2 mph 24.2 mph N/A   Mostly Cloudy
4:53 PM 75.0 °F 57.0 °F 53% 29.88 in 10.0 mi SSW 12.7 mph - N/A   Mostly Cloudy
5:53 PM 75.0 °F 55.0 °F 50% 29.87 in 10.0 mi SSW 10.4 mph 19.6 mph N/A   Scattered Clouds
6:53 PM 73.0 °F 55.0 °F 53% 29.89 in 10.0 mi SSW 6.9 mph - N/A   Scattered Clouds
7:53 PM 71.1 °F 55.9 °F 59% 29.89 in 10.0 mi SSW 4.6 mph - N/A   Mostly Cloudy
8:53 PM 69.1 °F 55.9 °F 63% 29.92 in 10.0 mi WSW 9.2 mph - N/A   Scattered Clouds
9:53 PM 64.9 °F 52.0 °F 63% 29.96 in 10.0 mi WNW 12.7 mph - N/A   Scattered Clouds
10:53 PM 61.0 °F 48.0 °F 62% 29.98 in 10.0 mi WNW 8.1 mph - N/A   Partly Cloudy
11:53 PM 59.0 °F 48.9 °F 69% 29.99 in 10.0 mi West 5.8 mph - N/A   Partly Cloudy